| time (UTC) | temp F | wind direction | speed MPH | gust MPH | rain 1hr in | rain 24hr in | rain mn in | humidity % | barometer mb |
| 20260509053333 | 71 | 167 | 1.0 | 3.0 | 0.00 | 0.00 | 0.00 | 93 | 1012.6 |
| 20260509052336 | 71 | 222 | 0.0 | 0.0 | 0.00 | 0.00 | 0.00 | 93 | 1012.8 |
| 20260509051326 | 71 | 222 | 0.0 | 1.0 | 0.00 | 0.00 | 0.00 | 94 | 1012.7 |
| 20260509050327 | 70 | 217 | 1.0 | 5.0 | 0.00 | 0.00 | 0.00 | 94 | 1012.8 |
| 20260509045408 | 69 | 204 | 1.0 | 2.0 | 0.00 | 0.00 | 0.00 | 94 | 1012.7 |
| 20260509044329 | 68 | 92 | 0.0 | 0.0 | 0.00 | 0.00 | 0.00 | 92 | 1012.5 |
| 20260509043358 | 68 | 92 | 0.0 | 0.0 | 0.00 | 0.00 | 0.00 | 92 | 1012.2 |
| 20260509042417 | 67 | 92 | 0.0 | 0.0 | 0.00 | 0.00 | 0.00 | 91 | 1012.2 |
| 20260509040349 | 68 | 92 | 0.0 | 0.0 | 0.00 | 0.00 | 0.00 | 90 | 1011.9 |
| 20260509035412 | 68 | 92 | 0.0 | 0.0 | 0.00 | 0.00 | 0.00 | 90 | 1012.0 |
| 20260509034327 | 69 | 92 | 0.0 | 0.0 | 0.00 | 0.00 | 0.00 | 90 | 1012.0 |
| 20260509033354 | 69 | 92 | 0.0 | 0.0 | 0.00 | 0.00 | 0.00 | 89 | 1011.9 |
| 20260509032416 | 70 | 92 | 0.0 | 0.0 | 0.00 | 0.00 | 0.00 | 89 | 1011.9 |
| 20260509031327 | 70 | 92 | 0.0 | 0.0 | 0.00 | 0.00 | 0.00 | 89 | 1011.9 |
| 20260509030403 | 71 | 92 | 0.0 | 0.0 | 0.00 | 0.00 | 0.00 | 89 | 1011.8 |
| 20260509025416 | 71 | 92 | 0.0 | 0.0 | 0.00 | 0.00 | 0.00 | 89 | 1011.8 |
| 20260509024330 | 71 | 92 | 0.0 | 0.0 | 0.00 | 0.00 | 0.00 | 88 | 1011.8 |
| 20260509021346 | 73 | 92 | 0.0 | 0.0 | 0.00 | 0.00 | 0.00 | 86 | 1011.2 |
| 20260509020422 | 73 | 92 | 0.0 | 0.0 | 0.00 | 0.00 | 0.00 | 86 | 1011.2 |
| 20260509015339 | 73 | 92 | 0.0 | 0.0 | 0.00 | 0.00 | 0.00 | 85 | 1010.9 |
| 20260509014419 | 74 | 92 | 0.0 | 0.0 | 0.00 | 0.00 | 0.00 | 85 | 1010.9 |
| 20260509013342 | 74 | 92 | 0.0 | 0.0 | 0.00 | 0.00 | 0.00 | 85 | 1010.6 |
| 20260509012409 | 74 | 92 | 0.0 | 0.0 | 0.00 | 0.00 | 0.00 | 84 | 1010.5 |
| 20260509010341 | 75 | 92 | 0.0 | 0.0 | 0.00 | 0.00 | 0.00 | 83 | 1010.7 |
| 20260509005358 | 75 | 92 | 0.0 | 0.0 | 0.00 | 0.00 | 0.00 | 83 | 1010.6 |
| 20260509004416 | 75 | 92 | 0.0 | 3.0 | 0.00 | 0.00 | 0.00 | 82 | 1010.6 |
| 20260509002345 | 75 | 127 | 1.0 | 3.0 | 0.00 | 0.00 | 0.00 | 82 | 1010.6 |
| 20260509001406 | 76 | 117 | 1.0 | 4.0 | 0.00 | 0.00 | 0.00 | 81 | 1010.7 |
| 20260509000336 | 76 | 157 | 1.0 | 5.0 | 0.00 | 0.00 | 0.00 | 81 | 1010.6 |
| 20260508235402 | 76 | 162 | 2.0 | 5.0 | 0.00 | 0.00 | 0.00 | 81 | 1010.7 |
| 20260508234421 | 76 | 173 | 1.0 | 5.0 | 0.00 | 0.00 | 0.00 | 80 | 1010.7 |
| 20260508233357 | 76 | 210 | 1.0 | 6.0 | 0.00 | 0.00 | 0.00 | 80 | 1010.7 |
| 20260508232411 | 76 | 157 | 2.0 | 5.0 | 0.00 | 0.00 | 0.00 | 80 | 1010.7 |
| 20260508231331 | 76 | 111 | 3.0 | 7.0 | 0.00 | 0.00 | 0.00 | 80 | 1010.5 |
| 20260508230356 | 76 | 139 | 4.0 | 7.0 | 0.00 | 0.00 | 0.00 | 80 | 1010.5 |
| 20260508225331 | 76 | 158 | 3.0 | 7.0 | 0.00 | 0.00 | 0.00 | 81 | 1010.6 |
| 20260508224405 | 75 | 125 | 5.0 | 9.0 | 0.00 | 0.00 | 0.00 | 81 | 1010.6 |
| 20260508223329 | 75 | 135 | 4.0 | 9.0 | 0.00 | 0.00 | 0.00 | 81 | 1010.7 |
| 20260508222358 | 75 | 150 | 3.0 | 10.0 | 0.00 | 0.00 | 0.00 | 81 | 1010.8 |
| 20260508221417 | 75 | 143 | 1.0 | 7.0 | 0.00 | 0.00 | 0.00 | 81 | 1010.9 |
| 20260508220343 | 75 | 166 | 4.0 | 6.0 | 0.00 | 0.00 | 0.00 | 82 | 1011.0 |
| 20260508215402 | 75 | 172 | 5.0 | 8.0 | 0.00 | 0.00 | 0.00 | 82 | 1011.0 |
| 20260508214418 | 75 | 118 | 3.0 | 8.0 | 0.00 | 0.00 | 0.00 | 81 | 1011.1 |
| 20260508212342 | 76 | 196 | 3.0 | 8.0 | 0.00 | 0.00 | 0.00 | 81 | 1011.2 |
| 20260508211416 | 75 | 130 | 3.0 | 8.0 | 0.00 | 0.00 | 0.00 | 81 | 1011.3 |
| 20260508210345 | 76 | 141 | 4.0 | 8.0 | 0.00 | 0.00 | 0.00 | 80 | 1011.6 |
| 20260508205417 | 76 | 156 | 3.0 | 7.0 | 0.00 | 0.00 | 0.00 | 80 | 1011.5 |
| 20260508204339 | 75 | 146 | 4.0 | 7.0 | 0.00 | 0.00 | 0.00 | 80 | 1011.7 |
| 20260508203405 | 75 | 111 | 3.0 | 9.0 | 0.00 | 0.00 | 0.00 | 80 | 1011.7 |
| 20260508202337 | 75 | 94 | 3.0 | 7.0 | 0.00 | 0.00 | 0.00 | 81 | 1011.8 |
| 20260508201407 | 75 | 196 | 4.0 | 7.0 | 0.00 | 0.00 | 0.00 | 80 | 1011.9 |
| 20260508200323 | 75 | 110 | 3.0 | 8.0 | 0.00 | 0.00 | 0.00 | 82 | 1011.9 |
| 20260508195353 | 74 | 69 | 4.0 | 8.0 | 0.00 | 0.00 | 0.00 | 81 | 1012.1 |
| 20260508194402 | 74 | 131 | 4.0 | 8.0 | 0.00 | 0.00 | 0.00 | 82 | 1012.2 |
| 20260508193335 | 73 | 105 | 3.0 | 9.0 | 0.00 | 0.00 | 0.00 | 83 | 1012.5 |
| 20260508192352 | 73 | 134 | 4.0 | 6.0 | 0.00 | 0.00 | 0.00 | 83 | 1012.5 |
| 20260508191408 | 72 | 116 | 3.0 | 7.0 | 0.00 | 0.00 | 0.00 | 83 | 1012.5 |
| 20260508190413 | 72 | 86 | 2.0 | 7.0 | 0.00 | 0.00 | 0.00 | 84 | 1012.6 |
| 20260508185345 | 72 | 127 | 3.0 | 6.0 | 0.00 | 0.00 | 0.00 | 83 | 1012.6 |
| 20260508184415 | 72 | 71 | 3.0 | 7.0 | 0.00 | 0.00 | 0.00 | 83 | 1012.7 |
| 20260508183327 | 72 | 108 | 2.0 | 5.0 | 0.00 | 0.00 | 0.00 | 82 | 1012.9 |
| 20260508181349 | 72 | 103 | 1.0 | 4.0 | 0.00 | 0.00 | 0.00 | 81 | 1013.3 |
| 20260508180420 | 72 | 143 | 1.0 | 4.0 | 0.00 | 0.00 | 0.00 | 81 | 1013.4 |
| 20260508175333 | 72 | 79 | 1.0 | 4.0 | 0.00 | 0.00 | 0.00 | 81 | 1013.7 |
| 20260508174342 | 72 | 124 | 0.0 | 4.0 | 0.00 | 0.00 | 0.00 | 82 | 1013.8 |
| 20260508173413 | 71 | 175 | 0.0 | 0.0 | 0.00 | 0.00 | 0.00 | 81 | 1013.8 |
| 20260508172327 | 71 | 144 | 0.0 | 4.0 | 0.00 | 0.00 | 0.00 | 81 | 1013.8 |
| 20260508171404 | 71 | 295 | 0.0 | 2.0 | 0.00 | 0.00 | 0.00 | 81 | 1013.9 |
| 20260508170322 | 70 | 45 | 0.0 | 1.0 | 0.00 | 0.00 | 0.00 | 82 | 1013.9 |
| 20260508164336 | 68 | 45 | 0.0 | 1.0 | 0.00 | 0.00 | 0.00 | 84 | 1013.9 |
| 20260508163419 | 67 | 55 | 0.0 | 0.0 | 0.00 | 0.00 | 0.00 | 85 | 1014.0 |
| 20260508154344 | 65 | 49 | 0.0 | 4.0 | 0.00 | 0.00 | 0.00 | 87 | 1015.0 |
| 20260508153414 | 64 | 78 | 0.0 | 2.0 | 0.00 | 0.00 | 0.00 | 88 | 1015.2 |
| 20260508152346 | 63 | 78 | 0.0 | 0.0 | 0.00 | 0.00 | 0.00 | 88 | 1015.4 |
| 20260508151411 | 63 | 78 | 0.0 | 0.0 | 0.00 | 0.00 | 0.00 | 89 | 1015.3 |
| 20260508150331 | 63 | 78 | 0.0 | 2.0 | 0.00 | 0.00 | 0.00 | 89 | 1015.5 |
| 20260508145407 | 62 | 78 | 1.0 | 4.0 | 0.00 | 0.00 | 0.00 | 89 | 1015.4 |
| 20260508144330 | 62 | 61 | 0.0 | 2.0 | 0.00 | 0.00 | 0.00 | 88 | 1015.5 |
| 20260508143344 | 62 | 61 | 0.0 | 2.0 | 0.00 | 0.00 | 0.00 | 88 | 1015.5 |
| 20260508142351 | 62 | 61 | 0.0 | 4.0 | 0.00 | 0.00 | 0.00 | 87 | 1015.8 |
| 20260508141420 | 62 | 59 | 1.0 | 3.0 | 0.00 | 0.00 | 0.00 | 86 | 1015.7 |
| 20260508140329 | 62 | 59 | 0.0 | 2.0 | 0.00 | 0.00 | 0.00 | 87 | 1015.4 |
| 20260508135358 | 61 | 59 | 0.0 | 0.0 | 0.00 | 0.00 | 0.00 | 86 | 1015.4 |
| 20260508134330 | 61 | 65 | 1.0 | 4.0 | 0.00 | 0.00 | 0.00 | 86 | 1015.4 |
| 20260508133358 | 61 | 38 | 0.0 | 2.0 | 0.00 | 0.00 | 0.00 | 87 | 1015.1 |
| 20260508132326 | 61 | 42 | 0.0 | 2.0 | 0.00 | 0.00 | 0.00 | 86 | 1015.4 |
| 20260508131348 | 61 | 45 | 1.0 | 3.0 | 0.00 | 0.00 | 0.00 | 86 | 1015.3 |
| 20260508130358 | 61 | 63 | 1.0 | 5.0 | 0.00 | 0.00 | 0.00 | 86 | 1015.1 |
| 20260508125416 | 61 | 63 | 0.0 | 2.0 | 0.00 | 0.00 | 0.00 | 86 | 1015.4 |
| 20260508124343 | 61 | 63 | 0.0 | 1.0 | 0.00 | 0.00 | 0.00 | 86 | 1015.5 |
| 20260508123408 | 61 | 63 | 1.0 | 3.0 | 0.00 | 0.00 | 0.00 | 86 | 1015.5 |
| 20260508122341 | 61 | 67 | 0.0 | 2.0 | 0.00 | 0.00 | 0.00 | 86 | 1015.8 |
| 20260508121409 | 61 | 67 | 0.0 | 3.0 | 0.00 | 0.00 | 0.00 | 86 | 1015.5 |
| 20260508120429 | 61 | 51 | 0.0 | 3.0 | 0.00 | 0.00 | 0.00 | 85 | 1015.4 |
| 20260508113342 | 62 | 68 | 0.0 | 0.0 | 0.00 | 0.00 | 0.00 | 84 | 1015.5 |
| 20260508112413 | 62 | 68 | 0.0 | 0.0 | 0.00 | 0.00 | 0.00 | 84 | 1015.8 |
| 20260508111342 | 62 | 68 | 0.0 | 0.0 | 0.00 | 0.00 | 0.00 | 83 | 1015.9 |
| 20260508110406 | 62 | 68 | 0.0 | 0.0 | 0.00 | 0.00 | 0.00 | 82 | 1016.0 |
| 20260508105329 | 62 | 68 | 0.0 | 1.0 | 0.00 | 0.00 | 0.00 | 80 | 1015.9 |
| 20260508104342 | 62 | 68 | 0.0 | 1.0 | 0.00 | 0.00 | 0.00 | 80 | 1015.9 |
| 20260508103413 | 62 | 68 | 0.0 | 1.0 | 0.00 | 0.00 | 0.00 | 80 | 1015.9 |
| 20260508102332 | 62 | 68 | 0.0 | 1.0 | 0.00 | 0.00 | 0.00 | 80 | 1015.4 |
| 20260508101405 | 62 | 68 | 0.0 | 1.0 | 0.00 | 0.00 | 0.00 | 80 | 1015.4 |
| 20260508100330 | 62 | 68 | 0.0 | 0.0 | 0.00 | 0.00 | 0.00 | 80 | 1015.5 |
| 20260508095336 | 62 | 68 | 0.0 | 0.0 | 0.00 | 0.00 | 0.00 | 80 | 1015.3 |
| 20260508094410 | 62 | 68 | 0.0 | 0.0 | 0.00 | 0.00 | 0.00 | 81 | 1015.1 |
| 20260508093334 | 62 | 68 | 0.0 | 2.0 | 0.00 | 0.00 | 0.00 | 81 | 1015.2 |
| 20260508092413 | 62 | 68 | 1.0 | 3.0 | 0.00 | 0.00 | 0.00 | 82 | 1015.0 |
| 20260508090335 | 62 | 68 | 0.0 | 1.0 | 0.00 | 0.00 | 0.00 | 81 | 1015.4 |
| 20260508085343 | 62 | 68 | 0.0 | 1.0 | 0.00 | 0.00 | 0.00 | 80 | 1015.8 |
| 20260508084356 | 62 | 68 | 0.0 | 0.0 | 0.00 | 0.00 | 0.00 | 81 | 1015.7 |
| 20260508083402 | 62 | 68 | 0.0 | 1.0 | 0.00 | 0.00 | 0.00 | 81 | 1015.8 |
| 20260508082327 | 62 | 68 | 0.0 | 0.0 | 0.00 | 0.00 | 0.00 | 80 | 1015.5 |
| 20260508075345 | 63 | 68 | 0.0 | 0.0 | 0.00 | 0.00 | 0.00 | 77 | 1015.9 |
| 20260508074404 | 63 | 68 | 0.0 | 0.0 | 0.00 | 0.00 | 0.00 | 76 | 1016.2 |
| 20260508073326 | 63 | 68 | 0.0 | 0.0 | 0.00 | 0.00 | 0.00 | 75 | 1016.2 |
| 20260508072401 | 63 | 68 | 0.0 | 2.0 | 0.00 | 0.00 | 0.00 | 75 | 1016.3 |
| 20260508071420 | 63 | 68 | 0.0 | 0.0 | 0.00 | 0.00 | 0.00 | 75 | 1016.4 |
| 20260508070345 | 63 | 68 | 0.0 | 0.0 | 0.00 | 0.00 | 0.00 | 76 | 1016.4 |
| 20260508065335 | 63 | 68 | 0.0 | 0.0 | 0.00 | 0.00 | 0.00 | 75 | 1016.4 |
| 20260508064336 | 63 | 68 | 0.0 | 1.0 | 0.00 | 0.00 | 0.00 | 75 | 1016.4 |
| 20260508063347 | 63 | 68 | 0.0 | 1.0 | 0.00 | 0.00 | 0.00 | 75 | 1016.1 |
| 20260508062331 | 63 | 72 | 2.0 | 5.0 | 0.00 | 0.00 | 0.00 | 75 | 1015.6 |
| 20260508061335 | 63 | 83 | 1.0 | 3.0 | 0.00 | 0.00 | 0.00 | 76 | 1015.9 |
| 20260508060338 | 63 | 76 | 0.0 | 1.0 | 0.00 | 0.00 | 0.00 | 75 | 1016.6 |
| 20260508055342 | 63 | 76 | 0.0 | 3.0 | 0.00 | 0.00 | 0.00 | 76 | 1016.6 |
| 20260508054326 | 63 | 38 | 0.0 | 0.0 | 0.00 | 0.00 | 0.00 | 75 | 1016.6 |